Simultaneous Nadir Overpasses (SNOs) Predictions

Prediction of SNOs between AQUA and METOP-B Satellite Orbit:

Table of predicted SNOs for the next 14.0 days since TLE Epoch: 10/11/2025
Index Date (AQUA) Time (AQUA) Lat,Lon (AQUA) SZA (AQUA ) Date (METOP-B) Time (METOP-B) Lat,Lon (METOP-B) SZA (METOP-B ) Distance(km) Time Diff (sec)
1 10/12/2025 07:46:52 -77.92,-115.91 94.59 10/12/2025 07:46:02 -77.96,-115.91 94.56 3.96 50
2 10/12/2025 08:36:11 77.97, 51.53 85.48 10/12/2025 08:36:41 77.98, 51.55 85.49 1.23 30
3 10/14/2025 19:45:05 77.95,-115.55 86.38 10/14/2025 19:44:33 77.94,-115.62 86.37 2.07 32
4 10/14/2025 20:34:23 -77.99, 51.96 93.58 10/14/2025 20:35:14 -78.00, 52.01 93.56 1.71 51
5 10/17/2025 07:43:17 -77.97,-115.12 92.68 10/17/2025 07:43:07 -77.96,-115.19 92.70 2.54 10
6 10/17/2025 08:32:35 77.99, 52.48 87.35 10/17/2025 08:33:45 78.02, 52.49 87.39 3.74 70
7 10/19/2025 18:52:10 -77.96, 77.80 91.80 10/19/2025 18:50:59 -77.95, 77.79 91.82 1.53 71
8 10/19/2025 19:41:28 77.98,-114.62 88.24 10/19/2025 19:41:38 77.97,-114.74 88.23 2.77 10
9 10/22/2025 06:50:20 77.97, 78.27 89.11 10/22/2025 06:49:30 77.96, 78.22 89.09 1.90 50
10 10/22/2025 07:39:38 -78.00,-114.19 90.86 10/22/2025 07:40:11 -78.02,-114.17 90.84 1.48 33
11 10/24/2025 18:48:29 -78.00, 78.70 90.00 10/24/2025 18:48:03 -77.99, 78.75 90.01 1.22 26



Historial Predications of SNOs between AQUA and METOP-B
